Change the Weather History Date:

Sunday, October 26, 2014

  Actual Average Record
Temperature  
Mean Temperature 64 °F 60 °F  
Max Temperature 70 °F 69 °F 89 °F (2003)
Min Temperature 58 °F 52 °F 39 °F (1954)
Degree Days  
Heating Degree Days 1 5  
Month to date heating degree days 4 93  
Since 1 July heating degree days 27 259  
Cooling Degree Days 0 0  
Month to date cooling degree days 124 20  
Year to date cooling degree days 489 161  
Growing Degree Days 14 (Base 50)    
Moisture  
Dew Point 53 °F    
Average Humidity 67    
Maximum Humidity 90    
Minimum Humidity 44    
Precipitation  
Precipitation 0.00 in 0.04 in 1.20 in (2004)
Month to date precipitation 0.13 0.69  
Year to date precipitation 7.86 13.98  
Since 1 July precipitation 0.55 0.90  
Sea Level Pressure  
Sea Level Pressure 30.13 in    
Wind  
Wind Speed 10 mph (WNW)    
Max Wind Speed 23 mph    
Max Gust Speed 32 mph    
Visibility 10 miles    
Events      
T = Trace of Precipitation, MM = Missing Value Source: NWS Daily Summary

Daily Weather History Graph

Daily Weather History Graph

Search for Another Location

Airport or City:

Trip Planner

Search our weather history database for the weather conditions in past years. The results will help you decide how hot, cold, wet, or windy it might be!

Date:

Astronomy

Oct. 26, 2014 Rise Set
Actual Time 7:28 AM PDT 6:17 PM PDT
Civil Twilight 7:01 AM PDT 6:44 PM PDT
Nautical Twilight 6:30 AM PDT 7:15 PM PDT
Astronomical Twilight 6:00 AM PDT 7:45 PM PDT
Moon 10:09 AM PDT (10/26) 8:36 PM PDT (10/26)
Length of Visible Light 11h 42m
Length of Day
10h 49m
Waxing Crescent, 9% of the Moon is Illuminated
Oct 26
Waxing Crescent
Oct 30
First Quarter
Nov 6
Full
Nov 14
Last Quarter
Nov 22
New

Hourly Weather History & Observations

Time (PDT) Temp. Dew Point Humidity Pressure Visibility Wind Dir Wind Speed Gust Speed Precip Events Conditions
12:05 AM 62.6 °F 57.2 °F 82% 30.15 in 10.0 mi WSW 4.6 mph - N/A   Overcast
12:56 AM 63.0 °F 57.9 °F 84% 30.15 in 10.0 mi West 10.4 mph - N/A   Partly Cloudy
1:56 AM 62.1 °F 57.0 °F 84% 30.16 in 10.0 mi West 8.1 mph - N/A   Mostly Cloudy
2:56 AM 62.1 °F 57.0 °F 84% 30.16 in 10.0 mi WNW 8.1 mph - N/A   Clear
3:56 AM 61.0 °F 57.0 °F 87% 30.16 in 9.0 mi West 9.2 mph - N/A   Clear
4:56 AM 60.1 °F 57.0 °F 90% 30.16 in 9.0 mi WNW 6.9 mph - N/A   Clear
5:56 AM 59.0 °F 55.0 °F 87% 30.17 in 8.0 mi West 5.8 mph - N/A   Clear
6:56 AM 59.0 °F 54.0 °F 83% 30.17 in 10.0 mi West 8.1 mph - N/A   Partly Cloudy
7:56 AM 59.0 °F 52.0 °F 78% 30.17 in 10.0 mi WNW 5.8 mph - N/A   Partly Cloudy
8:56 AM 62.1 °F 51.1 °F 67% 30.17 in 10.0 mi NW 4.6 mph - N/A   Partly Cloudy
9:56 AM 64.9 °F 48.9 °F 56% 30.18 in 10.0 mi North 3.5 mph - N/A   Partly Cloudy
10:56 AM 64.9 °F 51.1 °F 61% 30.18 in 10.0 mi North 8.1 mph - N/A   Partly Cloudy
11:56 AM 66.0 °F 53.1 °F 63% 30.17 in 10.0 mi NNE 11.5 mph - N/A   Partly Cloudy
12:56 PM 66.9 °F 51.1 °F 57% 30.15 in 10.0 mi North 12.7 mph - N/A   Partly Cloudy
1:56 PM 69.1 °F 46.0 °F 44% 30.13 in 10.0 mi North 9.2 mph - N/A   Scattered Clouds
2:56 PM 70.0 °F 48.9 °F 47% 30.12 in 10.0 mi West 18.4 mph - N/A   Scattered Clouds
3:56 PM 69.1 °F 50.0 °F 51% 30.10 in 10.0 mi WNW 18.4 mph 23.0 mph N/A   Scattered Clouds
4:56 PM 66.9 °F 51.1 °F 57% 30.08 in 10.0 mi NNW 17.3 mph 32.2 mph N/A   Scattered Clouds
5:56 PM 64.9 °F 52.0 °F 63% 30.07 in 10.0 mi WNW 18.4 mph - N/A   Scattered Clouds
6:56 PM 64.0 °F 53.1 °F 67% 30.07 in 10.0 mi West 13.8 mph - N/A   Scattered Clouds
7:56 PM 63.0 °F 54.0 °F 72% 30.07 in 10.0 mi West 15.0 mph - N/A   Partly Cloudy
8:56 PM 63.0 °F 54.0 °F 72% 30.06 in 10.0 mi West 13.8 mph - N/A   Partly Cloudy
9:56 PM 62.1 °F 54.0 °F 75% 30.06 in 10.0 mi West 9.2 mph - N/A   Partly Cloudy
10:56 PM 62.1 °F 54.0 °F 75% 30.07 in 10.0 mi West 10.4 mph - N/A   Partly Cloudy
11:56 PM 62.1 °F 54.0 °F 75% 30.06 in 10.0 mi West 6.9 mph - N/A   Partly Cloudy